Flag for Argentina Weather past 2 weeks in Formosa, Formosa, Argentina

Now
75 °F

Partly sunny.


Feels Like: 77 °F
Forecast: 73 / 87 °F
Wind: 10 mph from North

Location: Formosa Aerodrome

Current Time: Aug 3, 2015 at 10:12:33 AM

Latest Report: Aug 3, 2015 at 9:00 AM


Visibility: N/A

Pressure: 29.89 "Hg

Humidity: 61%

Dew point: 61 °F

Location of FormosaLocation

Historic Weather in Formosa — Graph

°F

Formosa temperature yesterday

Maximum temperature yesterday: 90 °F (at 1:00 PM)
Minimum temperature yesterday: 66 °F (at 6:00 AM)
Average temperature yesterday: 78 °F

Past Weeks' High & Low Weather Summary

 TemperatureHumidityPressure
High90 °F (Jul 31, 2:00 PM)100% (Jul 20, 8:00 AM)30.33 "Hg (Jul 20, 8:00 AM)
Low43 °F (Jul 22, 5:00 AM)36% (Aug 2, 4:00 PM)29.68 "Hg (Aug 3, 12:00 AM)
Average68 °F76%30.00 "Hg
* Reported Jul 19 9:00 AM — Aug 3 9:00 AM, Formosa, Weather by CustomWeather, © 2015

Note: Actual official high and low records may vary slightly from our data, if they occured in-between our weather recording intervals... More about our weather records

Advertising

Formosa weather history for previous 24 hours

 ConditionsComfort  
Time TempWeatherWind HumidityBarometerVisibility
9:00 AM
Mon, Aug 3
75 °FPartly sunny.10 mph61%29.89 "HgN/A
8:00 AM73 °FPartly sunny.7 mph65%29.86 "HgN/A
7:00 AM73 °FScattered clouds.7 mph65%29.83 "HgN/A
6:00 AM73 °FPassing clouds.7 mph65%29.80 "HgN/A
5:00 AM73 °FPassing clouds.5 mph69%29.80 "HgN/A
4:00 AM75 °FPassing clouds.9 mph61%29.77 "HgN/A
2:00 AM75 °FPassing clouds.10 mph65%29.80 "HgN/A
1:00 AM75 °FPassing clouds.9 mph65%29.80 "HgN/A
12:00 AM75 °FPassing clouds.8 mph65%29.68 "HgN/A
11:00 PM
Sun, Aug 2
75 °FPassing clouds.8 mph69%29.80 "HgN/A
10:00 PM75 °FClear.8 mph69%29.77 "Hg10 mi
9:00 PM77 °FClear.9 mph65%29.74 "Hg10 mi
8:00 PM75 °FClear.8 mph69%29.71 "Hg5 mi
6:00 PM86 °FClear.9 mph40%29.71 "Hg10 mi
5:00 PM88 °FSunny.17 mph38%29.71 "Hg10 mi
4:00 PM90 °FSunny.17 mph36%29.71 "Hg10 mi
3:00 PM90 °FSunny.14 mph38%29.71 "Hg10 mi
2:00 PM90 °FSunny.18 mph38%29.74 "Hg10 mi
1:00 PM90 °FSunny.15 mph38%29.80 "Hg10 mi
12:00 PM84 °FSunny.13 mph45%29.83 "Hg10 mi
11:00 AM82 °FSunny.10 mph48%29.83 "Hg10 mi
10:00 AM77 °FSunny.12 mph57%29.86 "Hg10 mi
Weather by CustomWeather, © 2015

See weather overviewHow to use our weather pages